Temperature
19 18 18 18 18 18 18 17 17 17 17 17 17 17 17 17 16 16 16 16 16 16 16 16 16 16 16 16 16 16 16 16 15 15 15 15 15 15 15 15 15 15 14
19 18 18 18 18 18 17 17 17 17 17 17 17 17 16 16 16 16 16 16 16 16 16 15 15 15 15 15 15 15 15 15 15 15 15 15 15 14 14 14 14 14 14
19 18 18 18 18 17 17 17 17 17 17 17 16 16 16 16 16 16 15 15 15 15 15 15 15 15 15 15 15 15 15 15 15 15 14 14 14 14 14 14 14 13 13
18 18 18 17 17 17 17 17 17 16 16 16 16 16 16 15 15 15 15 15 15 14 14 14 14 15 14 14 14 14 14 14 14 14 14 13 13 13 13 13 13 12 12
18 18 17 17 17 17 17 16 16 16 16 16 15 15 15 15 15 15 14 14 14 14 14 14 14 14 14 14 14 14 14 14 14 13 13 13 13 12 12 12 12 12 12
17 17 17 17 17 16 16 16 16 15 15 15 15 15 15 15 14 14 14 14 14 14 14 14 13 13 13 13 13 13 13 13 13 13 13 12 12 12 12 12 11 11 11
17 17 17 16 16 16 16 15 15 15 15 15 14 14 14 14 14 14 13 14 13 13 13 13 13 13 13 13 13 13 13 12 12 12 12 12 12 11 11 11 11 11 11
17 17 16 16 16 16 15 15 15 15 14 14 14 14 14 13 13 13 13 13 13 12 12 12 12 12 12 12 12 12 12 12 12 11 11 11 11 11 11 11 11 11 10
17 16 16 16 16 15 15 15 14 14 14 14 13 13 13 13 13 13 12 12 12 12 12 11 11 11 11 11 12 12 11 11 11 11 11 11 11 11 10 10 10 10 10
16 16 16 15 15 15 15 14 14 13 13 13 13 13 12 12 12 12 12 12 12 11 11 11 11 11 11 11 11 11 11 10 10 10 10 10 10 10 10 10 10 10 9
16 16 15 15 15 15 14 14 13 13 13 13 12 12 12 12 12 11 11 11 11 11 11 10 10 10 10 10 10 10 10 10 10 10 10 9 9 9 9 9 9 9 9
16 16 15 15 14 14 14 13 13 13 12 12 12 12 11 11 11 11 11 11 11 11 10 10 10 10 10 10 10 10 10 10 9 9 9 9 9 8 8 8 8 8 8
15 15 15 14 14 14 13 13 13 12 12 12 11 11 11 11 11 10 10 10 10 10 10 10 9 9 9 9 9 9 9 9 9 9 8 8 8 8 8 8 8 8 8
15 15 14 14 13 13 13 13 12 12 12 11 11 11 11 10 10 10 10 10 10 10 9 9 9 9 9 9 9 9 8 8 8 8 8 8 8 8 8 8 7 7 7
15 14 14 13 13 13 12 12 12 12 11 11 11 11 10 10 10 10 10 10 10 9 9 9 9 9 9 9 8 8 8 8 8 8 8 7 7 7 7 7 7 7 7
14 14 13 13 13 12 12 12 11 11 11 10 10 10 10 10 10 9 9 9 9 9 9 9 9 8 8 8 8 8 8 8 7 7 7 7 7 7 7 7 7 7 6
14 14 13 13 12 12 12 12 11 11 10 10 10 10 10 10 9 9 9 9 9 9 9 9 8 8 8 8 8 7 7 7 7 7 7 7 7 7 6 6 6 6 6
13 13 13 12 12 12 11 11 11 11 10 10 10 10 9 9 9 9 9 9 9 9 8 8 8 8 8 7 7 7 7 7 7 7 6 6 6 6 6 6 6 6 6
13 12 12 12 12 11 11 11 11 10 10 10 10 9 9 9 9 9 9 9 9 8 8 8 8 8 7 7 7 7 7 7 6 6 6 6 6 6 6 6 6 6 6
12 12 12 12 11 11 11 11 10 10 10 10 9 9 9 9 9 9 9 8 8 8 8 8 7 7 7 7 7 7 6 6 6 6 6 6 6 6 6 6 6 6 6
12 12 12 11 11 11 11 10 10 10 10 10 10 9 9 9 9 9 8 8 8 8 8 7 7 7 7 7 7 6 6 6 6 6 6 6 6 6 6 6 6 5 5
12 11 11 11 11 11 11 10 10 10 10 10 9 9 9 9 9 8 8 8 8 8 7 7 7 7 7 6 6 6 6 6 6 6 6 5 5 5 5 5 5 5 5
11 11 11 11 11 11 10 10 10 10 10 10 9 9 9 9 8 8 8 8 8 7 7 7 7 7 6 6 6 6 6 6 6 5 5 5 5 5 5 5 5 5 5
11 11 11 11 11 10 10 10 10 10 10 10 9 9 9 9 9 8 8 8 7 7 7 7 7 6 6 6 6 6 6 6 5 5 5 5 5 5 5 5 5 5 5
11 11 11 11 10 10 10 10 10 10 10 10 9 9 9 9 8 8 8 8 7 7 7 7 6 6 6 6 6 6 5 5 5 5 5 5 5 5 5 4 4 4 4
11 11 11 10 10 10 10 10 10 10 10 9 9 9 9 9 8 8 8 8 7 7 7 6 6 6 6 6 5 5 5 5 5 5 5 4 4 4 4 4 4 4 4
Wind_Speed
4 4 4 3 3 3 3 2 2 3 3 4 3 3 3 3 2 2 2 2 2 1 1 1 1 1 1 1 1 1 1 2 3 2 1 0 1 1 3 4 4 4 4
5 5 4 4 4 4 4 3 3 4 4 4 4 4 4 4 3 3 3 3 3 2 2 1 2 1 1 1 1 1 1 1 2 2 1 0 1 1 2 2 4 4 5
6 6 5 5 5 5 4 4 5 5 6 5 6 6 5 5 4 4 3 4 3 3 3 3 3 2 2 2 1 1 0 0 1 2 0 1 1 1 2 2 3 3 4
7 7 6 5 5 5 5 5 6 6 6 6 6 6 5 5 5 5 5 5 5 6 5 4 4 4 3 2 2 2 1 2 2 2 1 1 1 1 2 2 2 2 2
8 7 6 6 6 6 7 6 6 6 7 6 6 7 6 5 5 5 5 6 6 6 6 5 6 8 8 5 4 3 2 2 2 3 2 2 1 1 1 1 2 1 2
8 7 7 7 7 7 7 7 7 7 7 7 7 7 7 6 8 9 7 5 5 6 6 5 6 7 9 11 11 10 7 5 3 3 2 1 0 0 1 1 2 1 1
8 7 7 7 7 7 7 7 7 7 7 8 7 7 7 7 9 9 9 6 6 6 5 5 6 7 8 6 9 12 12 11 7 3 2 1 0 1 1 2 2 2 1
8 7 7 7 8 7 7 7 7 6 7 7 7 7 7 8 10 10 10 8 8 7 7 6 6 6 6 6 7 8 9 9 8 6 4 3 2 1 2 2 3 3 3
8 8 7 8 8 7 7 6 6 7 7 6 6 7 7 7 9 10 9 7 7 8 7 7 7 6 9 9 8 8 8 8 11 13 12 11 12 11 8 5 4 4 3
8 8 7 7 8 8 7 6 6 7 7 7 7 7 7 6 8 9 8 6 6 6 6 7 10 9 9 9 7 7 8 5 6 8 10 11 11 11 11 6 4 3 2
8 8 8 7 8 7 7 6 7 7 7 7 7 6 7 7 7 9 9 5 5 5 5 5 6 10 11 11 9 6 6 5 5 6 7 7 7 7 7 7 5 3 3
9 9 8 7 7 7 7 7 6 7 8 6 6 6 6 6 7 8 9 9 7 6 4 3 5 11 12 12 9 9 11 8 6 6 6 6 5 5 5 7 9 8 5
10 9 8 8 6 6 7 7 6 6 6 5 5 4 4 4 5 8 9 9 9 5 4 6 8 11 10 9 11 11 9 6 6 6 5 4 3 3 5 6 8 10 11
10 9 8 8 7 6 5 5 5 5 5 5 4 4 3 3 3 4 4 5 6 6 5 6 9 10 9 8 7 7 6 5 5 4 3 4 4 5 5 4 4 4 5
10 9 8 8 8 7 6 4 4 2 3 5 4 4 4 3 1 2 2 2 2 3 4 5 5 5 6 6 6 6 5 6 5 4 4 4 5 5 4 4 4 4 4
10 9 7 7 7 6 7 6 8 6 6 7 7 6 3 4 4 6 6 6 6 7 7 5 4 4 4 4 4 4 4 4 3 3 4 4 4 4 4 4 4 4 4
10 9 8 8 7 6 6 7 5 5 8 7 7 7 7 6 6 6 6 7 7 8 6 4 3 3 3 3 3 3 3 2 2 3 3 3 3 3 3 3 3 3 3
9 10 9 8 7 7 6 5 5 6 4 2 3 4 5 5 5 6 6 7 6 5 3 3 2 2 2 2 2 2 2 3 3 3 3 3 3 2 3 2 2 2 2
8 8 8 7 7 6 6 5 5 5 4 3 1 2 2 4 6 6 6 5 4 2 2 2 2 2 2 2 2 3 3 3 3 3 3 3 3 2 2 2 2 3 2
7 11 10 8 7 7 6 6 5 4 4 3 3 2 2 3 3 2 2 2 3 2 2 2 2 3 3 3 3 3 3 3 3 3 2 2 2 2 2 2 2 1 1
6 8 11 8 7 7 6 6 6 5 5 4 3 4 6 4 3 3 2 2 2 3 3 3 3 3 3 3 3 3 4 2 2 2 2 2 2 2 2 2 2 1 1
6 6 6 7 6 6 6 6 6 6 6 5 3 3 6 4 3 3 3 3 2 3 5 5 3 3 3 3 3 3 3 2 2 2 2 2 2 2 2 2 2 2 2
6 6 6 6 6 8 7 6 6 6 5 5 4 4 4 4 3 4 3 3 3 4 7 8 6 5 5 5 5 4 3 1 1 0 1 1 2 2 2 2 2 2 2
7 7 7 6 5 5 6 5 5 5 5 5 5 5 5 5 4 5 4 4 5 6 8 8 8 8 7 5 4 3 3 2 1 1 1 1 1 2 2 1 2 1 2
6 6 6 5 5 6 5 5 5 5 5 5 5 5 5 5 5 5 4 5 7 7 8 9 9 8 7 6 5 3 2 2 1 1 2 2 1 2 2 2 2 2 2
6 6 5 5 5 5 5 5 5 5 5 5 5 5 6 5 6 5 5 5 6 6 8 9 10 10 8 7 6 4 3 2 1 1 1 2 1 2 2 2 3 3 3
Wind_Direction
137 128 117 112 107 99 97 95 87 74 75 72 73 78 69 55 45 54 46 51 60 17 7 13 310 311 304 310 286 262 237 198 220 253 238 267 91 87 88 104 104 105 112
135 126 119 112 104 100 94 85 81 77 70 68 63 66 65 60 54 58 51 43 48 46 18 356 311 326 349 334 323 286 252 206 190 215 286 40 71 111 112 105 96 99 95
126 120 110 104 102 99 91 82 79 76 69 64 64 64 60 54 51 51 60 53 53 44 31 25 6 31 18 352 6 5 315 64 148 160 217 47 55 84 78 78 75 74 88
118 112 109 105 103 97 89 84 81 79 74 66 64 63 61 56 53 54 60 63 58 49 41 40 35 36 23 11 31 37 69 77 85 106 103 67 58 65 94 89 59 36 58
117 112 110 105 98 91 85 81 77 75 74 69 67 61 55 54 52 56 59 68 61 52 41 41 48 51 49 49 55 50 66 78 80 86 81 58 35 56 105 132 128 94 49
119 118 112 105 98 93 88 82 78 74 72 70 66 64 57 53 53 59 68 69 65 59 50 41 45 46 49 54 58 59 66 81 90 89 84 86 35 271 182 135 133 124 87
119 116 112 109 103 99 98 87 81 77 76 74 68 65 61 50 55 60 67 71 66 58 53 47 50 47 46 48 56 57 54 57 70 102 95 79 151 251 155 123 118 118 120
121 116 113 111 107 103 99 94 89 85 82 79 73 65 62 53 57 61 68 69 65 54 51 53 55 41 45 56 62 56 48 38 44 56 69 50 46 62 118 126 121 95 66
123 121 120 119 116 110 106 103 98 95 87 80 74 68 66 51 52 62 71 72 66 52 46 49 54 52 48 62 69 65 56 40 46 57 59 57 57 63 79 91 86 93 72
128 125 121 120 120 118 114 106 101 99 96 87 70 61 63 54 51 65 77 80 73 60 47 40 46 53 54 62 72 74 68 45 43 45 44 43 45 50 56 67 89 96 86
125 118 114 114 114 113 108 104 105 101 94 85 74 57 52 50 54 67 75 80 87 76 59 41 33 46 54 60 68 71 75 74 60 58 51 41 34 33 32 36 52 88 92
120 115 112 111 115 114 107 105 105 107 100 90 79 61 42 38 51 66 74 77 82 82 68 45 41 51 57 60 63 64 68 68 62 56 50 40 35 31 27 34 43 52 60
119 117 113 103 97 101 106 111 108 108 108 104 95 84 53 32 36 54 68 72 72 73 63 57 58 59 57 55 56 61 63 65 65 61 53 35 19 21 31 35 34 42 44
124 121 116 110 100 88 87 95 108 115 120 121 118 112 89 54 36 34 43 57 58 58 49 45 51 53 55 49 47 50 53 64 78 76 59 35 30 36 37 34 38 31 38
128 126 120 115 112 100 87 77 102 108 148 147 149 144 131 110 350 56 93 71 72 79 74 55 51 51 51 45 43 43 43 49 55 52 55 48 40 39 31 25 37 42 46
137 136 134 130 125 122 116 90 56 69 85 110 127 133 117 121 110 84 78 82 84 90 83 71 64 65 68 63 60 46 39 42 45 51 54 55 49 45 36 30 41 49 47
147 146 143 140 139 139 135 128 111 59 61 78 100 112 114 115 105 92 83 81 80 88 83 81 81 81 76 69 65 65 47 28 43 54 55 49 49 45 45 39 39 42 37
150 152 151 151 151 150 147 142 140 138 124 74 54 92 105 102 93 83 83 86 66 62 80 94 96 91 85 77 68 62 50 40 46 51 49 42 42 49 49 36 34 40 33
157 159 157 154 154 153 150 145 142 141 138 136 102 50 78 86 70 73 83 90 104 91 89 96 98 92 84 82 77 72 67 57 49 51 45 37 36 46 36 25 25 28 39
154 156 155 155 155 154 152 151 151 151 150 149 155 162 125 95 86 72 74 98 112 114 113 111 98 89 88 88 80 73 63 52 42 42 32 21 17 32 29 17 23 27 11
144 149 148 148 154 158 160 162 161 158 161 166 178 175 156 142 147 142 134 134 138 133 126 118 106 96 90 88 90 82 75 57 42 35 25 18 22 21 11 23 14 14 12
144 143 143 145 148 152 158 162 162 164 169 169 172 163 158 142 144 150 154 155 152 148 141 130 122 123 124 130 124 112 97 71 30 13 12 11 16 19 22 27 19 14 20
145 144 141 144 147 151 153 160 164 168 172 176 168 156 155 164 169 167 165 161 150 140 138 131 128 126 123 122 125 130 139 162 226 331 54 13 8 10 14 6 359 358 353
147 150 150 148 148 155 159 162 164 167 168 166 162 161 166 170 171 173 173 165 153 149 148 147 148 150 148 142 140 140 142 144 128 89 70 45 3 353 358 351 332 326 331
146 149 150 150 154 158 158 161 163 162 165 169 169 169 171 171 174 176 174 167 160 158 159 161 162 163 162 161 163 165 163 145 113 77 59 47 2 346 338 324 315 308 311
145 149 149 152 158 158 159 163 168 166 167 173 173 174 177 179 180 179 176 171 167 166 169 174 177 179 179 181 184 181 176 169 134 82 56 33 10 341 335 315 314 309 302
Height
1543 1543 1544 1544 1545 1545 1545 1545 1545 1544 1544 1543 1543 1543 1543 1543 1542 1542 1541 1541 1541 1541 1540 1540 1539 1539 1539 1539 1539 1539 1539 1539 1538 1538 1538 1539 1539 1539 1539 1539 1539 1539 1539
1542 1543 1543 1544 1544 1544 1544 1544 1544 1543 1543 1543 1542 1542 1542 1541 1541 1540 1540 1539 1539 1538 1537 1537 1536 1536 1535 1535 1535 1535 1535 1534 1534 1534 1535 1535 1536 1536 1536 1537 1537 1537 1536
1542 1543 1543 1544 1544 1544 1544 1544 1543 1543 1543 1542 1542 1541 1541 1540 1539 1539 1538 1538 1537 1536 1536 1535 1534 1533 1532 1532 1532 1531 1531 1531 1532 1532 1532 1533 1533 1533 1534 1534 1534 1534 1534
1542 1542 1543 1543 1544 1544 1544 1544 1543 1543 1543 1542 1541 1541 1540 1539 1539 1538 1537 1537 1536 1535 1534 1533 1532 1531 1531 1530 1529 1529 1529 1529 1529 1530 1530 1530 1530 1531 1531 1531 1532 1532 1532
1541 1542 1542 1543 1544 1544 1544 1544 1543 1543 1543 1542 1542 1541 1540 1539 1538 1538 1537 1536 1535 1534 1533 1532 1531 1531 1530 1530 1529 1528 1528 1528 1528 1528 1528 1528 1528 1529 1529 1530 1530 1530 1530
1541 1543 1543 1544 1544 1544 1544 1544 1544 1543 1543 1543 1542 1541 1540 1539 1539 1538 1537 1536 1535 1534 1533 1532 1531 1531 1530 1530 1529 1529 1529 1528 1528 1527 1527 1527 1527 1527 1527 1528 1528 1528 1529
1542 1543 1544 1544 1545 1545 1545 1545 1544 1544 1544 1543 1543 1542 1541 1540 1539 1538 1537 1536 1535 1534 1534 1533 1532 1531 1531 1530 1530 1529 1529 1529 1529 1528 1527 1526 1525 1525 1525 1526 1526 1527 1528
1542 1543 1544 1544 1545 1545 1545 1545 1545 1544 1544 1544 1543 1543 1542 1541 1540 1539 1538 1537 1536 1536 1535 1534 1534 1533 1533 1532 1531 1531 1530 1529 1529 1528 1527 1526 1525 1524 1524 1525 1526 1527 1527
1542 1543 1544 1545 1545 1545 1545 1545 1545 1545 1545 1544 1544 1544 1543 1542 1542 1541 1540 1539 1538 1537 1537 1536 1536 1535 1535 1534 1533 1532 1532 1531 1531 1530 1529 1528 1527 1526 1525 1526 1526 1526 1527
1542 1543 1544 1545 1545 1545 1545 1545 1546 1546 1546 1545 1545 1545 1545 1544 1544 1543 1542 1541 1540 1539 1539 1538 1538 1538 1537 1536 1536 1535 1534 1534 1533 1532 1531 1530 1529 1528 1528 1528 1528 1527 1527
1541 1542 1544 1545 1545 1545 1546 1546 1546 1546 1547 1547 1546 1546 1546 1546 1546 1545 1545 1544 1543 1542 1541 1541 1540 1540 1540 1539 1538 1537 1537 1536 1536 1535 1534 1533 1532 1531 1531 1530 1530 1530 1529
1541 1542 1543 1544 1545 1545 1546 1546 1547 1547 1548 1548 1548 1548 1548 1548 1548 1548 1547 1546 1546 1545 1544 1544 1544 1543 1543 1542 1541 1540 1540 1539 1538 1537 1536 1536 1535 1534 1534 1533 1532 1532 1531
1540 1542 1543 1544 1545 1546 1546 1547 1548 1548 1549 1549 1549 1549 1549 1550 1550 1550 1549 1549 1548 1548 1547 1547 1547 1546 1545 1544 1544 1543 1542 1541 1540 1539 1539 1539 1538 1537 1536 1536 1535 1534 1533
1539 1541 1542 1544 1545 1546 1547 1548 1548 1549 1549 1550 1550 1550 1551 1551 1551 1551 1551 1551 1550 1550 1550 1549 1549 1549 1548 1547 1546 1546 1545 1544 1543 1542 1542 1541 1541 1540 1539 1538 1537 1536 1534
1538 1540 1542 1543 1544 1546 1547 1548 1549 1549 1550 1551 1551 1552 1552 1552 1552 1553 1552 1552 1552 1552 1552 1551 1551 1550 1550 1549 1549 1548 1548 1547 1546 1545 1544 1543 1543 1542 1541 1540 1539 1538 1537
1537 1539 1541 1542 1544 1545 1546 1548 1549 1550 1551 1552 1552 1553 1553 1553 1553 1554 1554 1554 1554 1554 1554 1553 1553 1552 1552 1551 1551 1550 1550 1549 1548 1547 1546 1546 1545 1544 1543 1542 1541 1540 1539
1536 1538 1540 1542 1544 1545 1547 1547 1548 1550 1551 1552 1553 1553 1554 1554 1554 1555 1555 1555 1555 1556 1555 1555 1554 1554 1554 1553 1553 1552 1551 1551 1550 1549 1548 1547 1547 1546 1545 1544 1543 1542 1541
1535 1537 1539 1541 1543 1545 1547 1548 1549 1549 1550 1551 1553 1553 1554 1554 1555 1555 1556 1556 1556 1556 1556 1556 1556 1555 1555 1554 1554 1553 1553 1552 1551 1550 1549 1548 1548 1547 1546 1546 1545 1544 1543
1534 1536 1538 1541 1543 1545 1546 1548 1549 1550 1551 1552 1553 1553 1554 1555 1555 1556 1556 1557 1556 1557 1556 1556 1556 1556 1556 1555 1554 1554 1553 1552 1552 1551 1550 1549 1549 1548 1548 1547 1546 1545 1544
1533 1535 1538 1540 1542 1544 1545 1547 1548 1549 1550 1551 1553 1554 1555 1555 1556 1556 1556 1557 1557 1557 1557 1557 1556 1556 1556 1555 1555 1554 1553 1553 1552 1551 1551 1550 1550 1549 1548 1547 1547 1546 1545
1532 1534 1537 1539 1541 1543 1545 1546 1548 1549 1550 1551 1552 1554 1555 1555 1556 1556 1557 1557 1557 1557 1557 1557 1556 1556 1556 1555 1554 1554 1553 1553 1552 1551 1551 1550 1550 1549 1548 1547 1547 1546 1545
1531 1534 1536 1538 1540 1542 1544 1546 1547 1549 1550 1551 1552 1553 1554 1555 1556 1556 1557 1557 1557 1557 1557 1557 1557 1556 1556 1555 1554 1553 1553 1552 1552 1551 1550 1550 1549 1549 1548 1547 1546 1545 1544
1531 1533 1536 1538 1540 1542 1544 1545 1547 1548 1550 1551 1552 1553 1554 1555 1555 1556 1556 1557 1557 1557 1557 1556 1556 1556 1555 1554 1554 1553 1552 1551 1551 1550 1550 1549 1548 1548 1547 1546 1546 1545 1544
1530 1533 1535 1537 1539 1541 1543 1545 1546 1548 1549 1550 1551 1552 1553 1554 1555 1555 1556 1556 1556 1556 1556 1555 1555 1555 1554 1553 1552 1552 1551 1550 1550 1549 1549 1548 1547 1547 1546 1545 1544 1544 1543
1530 1532 1535 1537 1538 1540 1542 1544 1545 1547 1548 1550 1551 1551 1552 1553 1554 1554 1554 1555 1555 1555 1554 1554 1554 1553 1553 1552 1551 1551 1550 1549 1548 1548 1547 1547 1546 1545 1544 1544 1543 1542 1541
1529 1532 1534 1536 1538 1540 1542 1543 1545 1546 1547 1549 1550 1551 1551 1552 1552 1553 1553 1553 1553 1553 1553 1553 1553 1552 1551 1551 1550 1549 1548 1548 1547 1546 1546 1545 1544 1543 1542 1542 1541 1540 1539